{"data":{"norad_id":56806,"epoch":"2026-05-25T03:39:06.203232Z","epoch_age_seconds":59086,"freshness":"FRESH","line1":"1 56806U 23078AR  26145.15215513  .00000468  00000+0  46976-4 0  9999","line2":"2 56806  69.9989 111.5125 0003241 264.9198  95.1591 14.98331397165091","mean_motion":14.98331397,"eccentricity":0.0003241,"inclination_deg":69.9989,"raan_deg":111.5125,"arg_perigee_deg":264.9198,"mean_anomaly_deg":95.1591,"bstar":4.6976e-5,"rev_number":16509,"period_min":96.106909518362,"perigee_km":569.7990147247,"apogee_km":574.30412695632,"semimajor_km":6950.1885708405,"source":"CELESTRAK","updated_at":"2026-05-25T13:38:18.159331Z"}}